Regional Weather Roundup
Issued by NWS Cleveland, OH

Home | Current Version | Previous Version | Graphics & Text | Print | Product List | Glossary On
Versions: 1 2 3 4 5 6 7 8 9 10 11 12 13 14 15 16 17 18 19 20 21 22 23 24 25 26 27 28 29 30 31 32 33 34 35 36 37 38 39 40 41 42 43 44 45 46 47 48 49 50
000
ASUS41 KCLE 130210
RWRCLE
OHIO REGIONAL WEATHER ROUNDUP
NATIONAL WEATHER SERVICE WILMINGTON, OH
1000 PM EDT SAT JUL 12 2014

NOTE: "FAIR" INDICATES FEW OR NO CLOUDS BELOW 12,000 FEET WITH NO
SIGNIFICANT WEATHER AND/OR OBSTRUCTIONS TO VISIBILITY.

OHZ001>008-015>018-024>027-034-035-043-044-130300-
   NORTHWEST OHIO

CITY           SKY/WX    TMP DP  RH WIND       PRES   REMARKS
DEFIANCE       MOCLDY    74  66  76 S3        29.99F
FINDLAY        CLEAR     75  68  78 SW6       30.01F
TOLEDO EXPRESS MOCLDY    76  67  73 SW6       29.98F
TOLEDO METCALF PTCLDY    77  68  73 SW8       30.00S
LIMA           MOCLDY    77  69  76 S6        30.03F
$$

OHZ009>014-019>023-028>033-038-089-130300-
   NORTHEAST OHIO

CITY           SKY/WX    TMP DP  RH WIND       PRES   REMARKS
CLE-HOPKINS    CLOUDY    77  61  57 S7        30.04F
CLE-LAKEFRONT  CLOUDY    81  60  48 S8        30.00F
CUY CO. ARPT   NOT AVBL
LORAIN-ELYRIA  MOCLDY    80  63  55 S7        30.03F
ASHTABULA      CLOUDY    75  64  68 S5        30.05R
AKRON-CANTON   MOCLDY    76  61  59 SW7       30.06F
WOOSTER        MOCLDY    74  65  73 S6        30.06F
MANSFIELD      MOCLDY    76  64  66 S7        30.06F
YOUNGSTOWN     MOCLDY    77  63  61 S5        30.06S
$$

OHZ042-051>053-060>062-070>072-077>081-130300-
  SOUTHWEST OHIO

CITY           SKY/WX    TMP DP  RH WIND       PRES   REMARKS
CINC-COVINGTON MOCLDY    77  68  73 S5        30.06S
CINC-LUNKEN    MOCLDY    75  69  81 CALM      30.05S
HAMILTON       MOCLDY    76  69  79 CALM      30.05S
DAYTON         MOCLDY    78  68  71 S7        30.06S
WRIGHT-PAT AFB NOT AVBL
DAYTON GENERAL MOCLDY    77  67  71 S3        30.05S
WILMINGTON     MOCLDY    74  67  78 S5        30.06F
$$

OHZ036-037-039>041-045>050-054>059-063>069-073>076-082>088-130300-
  CENTRAL AND SOUTHEAST OHIO

CITY           SKY/WX    TMP DP  RH WIND       PRES   REMARKS
COLUMBUS       MOCLDY    81  63  54 S5        30.05S
OSU AIRPORT    PTCLDY    78  65  63 S6        30.05F
BOLTON FIELD   MOCLDY    75  67  76 S6        30.06S
RICKENBACK AFB MOCLDY    77  64  63 S5        30.05S
NEWARK         PTCLDY    75  65  70 CALM      30.05F
MARION         PTCLDY    76  66  71 S7        30.05S
LANCASTER      MOCLDY    72  66  81 CALM      30.06F
ZANESVILLE     PTCLDY    76  66  71 S3        30.07S
NEW PHILLY     MOCLDY    74  64  71 CALM      30.07S
$$


USA.gov is the U.S. government's official web portal to all federal, state and local government web resources and services.